Roseau, MN

1:03 PM CDT on September 21, 2017 (GMT -0500)
Roseau Municipal-Billberg

Weather History for KROX - November, 2012

Change the Weather History Date:

Monday, November 12, 2012

  Actual Average Record
Temperature  
Mean Temperature 20 °F -  
Max Temperature 24 °F 33 °F 57 °F (1981)
Min Temperature 15 °F 17 °F -15 °F (1966)
Degree Days  
Heating Degree Days 46    
Moisture  
Dew Point 15 °F    
Average Humidity 81    
Maximum Humidity 86    
Minimum Humidity 73    
Precipitation  
Precipitation 0.00 in - - ()
Sea Level Pressure  
Sea Level Pressure 29.90 in    
Wind  
Wind Speed 6 mph (West)    
Max Wind Speed 10 mph    
Max Gust Speed -    
Visibility 8 miles    
Events Snow    
Averages and records for this station are not official NWS values.
T = Trace of Precipitation, MM = Missing Value Source: NWS Daily Summary

Daily Weather History Graph

Daily Weather History Graph

Search for Another Location

Airport or City:

Trip Planner

Search our weather history database for the weather conditions in past years. The results will help you decide how hot, cold, wet, or windy it might be!

Date:

Astronomy

Nov. 12, 2012 Rise Set
Actual Time 7:28 AM CST 4:45 PM CST
Civil Twilight 6:53 AM CST 5:19 PM CST
Nautical Twilight 6:15 AM CST 5:57 PM CST
Astronomical Twilight 5:38 AM CST 6:34 PM CST
Moon 5:50 AM CST (11/12) 3:53 PM CST (11/12)
Length of Visible Light 10h 26m
Length of Day
9h 17m
Waning Crescent, 2% of the Moon is Illuminated
Nov 12
Waning Crescent
Nov 13
New
Nov 20
First Quarter
Nov 28
Full
Dec 6
Last Quarter

Hourly Weather History & Observations

Time (CST) Temp. Windchill Dew Point Humidity Pressure Visibility Wind Dir Wind Speed Gust Speed Precip Events Conditions
12:14 AM 19.4 °F 12.8 °F 14.0 °F 80% 29.71 in 4.0 mi West 4.6 mph - N/A Snow Light Snow
12:54 AM 19.4 °F 12.8 °F 14.0 °F 80% 29.71 in 3.0 mi WSW 4.6 mph - N/A Snow Light Snow
1:14 AM 19.4 °F 12.8 °F 14.0 °F 80% 29.70 in 4.0 mi WSW 4.6 mph - N/A Snow Light Snow
1:34 AM 19.4 °F 11.5 °F 14.0 °F 80% 29.71 in 3.0 mi WSW 5.8 mph - N/A Snow Light Snow
1:54 AM 19.4 °F 11.5 °F 14.0 °F 80% 29.71 in 2.5 mi WSW 5.8 mph - N/A Snow Light Snow
2:14 AM 19.4 °F 11.5 °F 14.0 °F 80% 29.71 in 4.0 mi West 5.8 mph - N/A Snow Light Snow
2:34 AM 19.4 °F 11.5 °F 14.0 °F 80% 29.71 in 4.0 mi West 5.8 mph - N/A Snow Light Snow
2:54 AM 19.4 °F 10.4 °F 14.0 °F 80% 29.71 in 2.0 mi WSW 6.9 mph - N/A Snow Light Snow
3:14 AM 19.4 °F 11.5 °F 14.0 °F 80% 29.71 in 3.0 mi West 5.8 mph - N/A Snow Light Snow
3:34 AM 19.4 °F 11.5 °F 14.0 °F 80% 29.71 in 4.0 mi WSW 5.8 mph - N/A Snow Light Snow
3:54 AM 19.4 °F 11.5 °F 14.0 °F 80% 29.72 in 4.0 mi West 5.8 mph - N/A Snow Light Snow
4:14 AM 19.4 °F 11.5 °F 14.0 °F 80% 29.72 in 4.0 mi West 5.8 mph - N/A Snow Light Snow
4:34 AM 19.4 °F 10.4 °F 14.0 °F 80% 29.72 in 7.0 mi West 6.9 mph - N/A Snow Light Snow
4:55 AM 19.4 °F 10.4 °F 14.0 °F 80% 29.73 in 10.0 mi West 6.9 mph - N/A Snow Light Snow
5:14 AM 19.4 °F 10.4 °F 14.0 °F 80% 29.73 in 10.0 mi West 6.9 mph - N/A Snow Light Snow
5:34 AM 19.4 °F 11.5 °F 15.8 °F 86% 29.74 in 10.0 mi West 5.8 mph - N/A Snow Light Snow
5:55 AM 19.4 °F 10.4 °F 15.8 °F 86% 29.74 in 5.0 mi West 6.9 mph - N/A Snow Light Snow
6:14 AM 19.4 °F 10.4 °F 15.8 °F 86% 29.75 in 4.0 mi West 6.9 mph - N/A Snow Light Snow
6:55 AM 19.4 °F 10.4 °F 15.8 °F 86% 29.76 in 5.0 mi West 6.9 mph - N/A Snow Light Snow
7:14 AM 21.2 °F 12.6 °F 15.8 °F 80% 29.77 in 10.0 mi West 6.9 mph - N/A Snow Light Snow
7:34 AM 21.2 °F 13.6 °F 15.8 °F 80% 29.78 in 10.0 mi WNW 5.8 mph - N/A Snow Light Snow
7:54 AM 21.2 °F 13.6 °F 17.6 °F 86% 29.79 in 10.0 mi WNW 5.8 mph - N/A Snow Light Snow
8:14 AM 21.2 °F 11.7 °F 15.8 °F 80% 29.80 in 10.0 mi West 8.1 mph - N/A   Overcast
8:34 AM 21.2 °F 11.7 °F 15.8 °F 80% 29.81 in 10.0 mi West 8.1 mph - N/A   Overcast
8:54 AM 21.2 °F 13.6 °F 17.6 °F 86% 29.82 in 10.0 mi WNW 5.8 mph - N/A   Mostly Cloudy
9:14 AM 21.2 °F 12.6 °F 15.8 °F 80% 29.83 in 10.0 mi West 6.9 mph - N/A   Scattered Clouds
9:34 AM 21.2 °F 12.6 °F 15.8 °F 80% 29.83 in 10.0 mi West 6.9 mph - N/A   Clear
9:54 AM 21.2 °F 12.6 °F 17.6 °F 86% 29.84 in 10.0 mi WNW 6.9 mph - N/A   Clear
10:14 AM 23.0 °F 15.8 °F 17.6 °F 80% 29.85 in 7.0 mi WNW 5.8 mph - N/A   Clear
10:34 AM 23.0 °F 14.7 °F 17.6 °F 80% 29.86 in 4.0 mi NW 6.9 mph - N/A   Haze
10:54 AM 23.0 °F 14.7 °F 17.6 °F 80% 29.87 in 7.0 mi WNW 6.9 mph - N/A   Clear
11:15 AM 24.8 °F 17.9 °F 19.4 °F 80% 29.88 in 10.0 mi WNW 5.8 mph - N/A   Clear
11:34 AM 24.8 °F 19.1 °F 19.4 °F 80% 29.88 in 10.0 mi WNW 4.6 mph - N/A   Clear
11:54 AM 24.8 °F 17.9 °F 19.4 °F 80% 29.88 in 10.0 mi WNW 5.8 mph - N/A   Clear
12:15 PM 24.8 °F 16.9 °F 19.4 °F 80% 29.89 in 10.0 mi WNW 6.9 mph - N/A   Clear
12:34 PM 24.8 °F 17.9 °F 19.4 °F 80% 29.90 in 10.0 mi WNW 5.8 mph - N/A   Clear
12:54 PM 24.8 °F 15.3 °F 19.4 °F 80% 29.91 in 10.0 mi West 9.2 mph - N/A   Clear
1:15 PM 23.0 °F 13.9 °F 19.4 °F 86% 29.92 in 5.0 mi WNW 8.1 mph - N/A   Mostly Cloudy
1:34 PM 23.0 °F 15.8 °F 19.4 °F 86% 29.93 in 7.0 mi WNW 5.8 mph - N/A   Mostly Cloudy
1:54 PM 24.8 °F 17.9 °F 19.4 °F 80% 29.94 in 10.0 mi WNW 5.8 mph - N/A   Scattered Clouds
2:15 PM 23.0 °F 14.7 °F 17.6 °F 80% 29.95 in 10.0 mi WNW 6.9 mph - N/A   Scattered Clouds
2:54 PM 21.2 °F 13.6 °F 17.6 °F 86% 29.97 in 10.0 mi WNW 5.8 mph - N/A   Overcast
3:15 PM 23.0 °F 15.8 °F 17.6 °F 80% 29.98 in 10.0 mi WNW 5.8 mph - N/A   Scattered Clouds
3:34 PM 23.0 °F 14.7 °F 17.6 °F 80% 30.00 in 10.0 mi West 6.9 mph - N/A   Clear
3:54 PM 21.2 °F 12.6 °F 17.6 °F 86% 30.01 in 10.0 mi West 6.9 mph - N/A   Mostly Cloudy
4:34 PM 21.2 °F 11.7 °F 17.6 °F 86% 30.03 in 10.0 mi West 8.1 mph - N/A   Overcast
4:54 PM 21.2 °F 10.1 °F 17.6 °F 86% 30.04 in 10.0 mi West 10.4 mph - N/A   Overcast
5:15 PM 21.2 °F 12.6 °F 17.6 °F 86% 30.05 in 10.0 mi West 6.9 mph - N/A   Overcast
5:34 PM 21.2 °F 12.6 °F 17.6 °F 86% 30.06 in 10.0 mi West 6.9 mph - N/A   Overcast
5:54 PM 21.2 °F 12.6 °F 17.6 °F 86% 30.07 in 10.0 mi West 6.9 mph - N/A   Overcast
6:15 PM 19.4 °F 12.8 °F 15.8 °F 86% 30.08 in 10.0 mi West 4.6 mph - N/A   Overcast
6:54 PM 19.4 °F 14.3 °F 14.0 °F 80% 30.09 in 10.0 mi WSW 3.5 mph - N/A   Overcast
7:15 PM 19.4 °F 11.5 °F 14.0 °F 80% 30.09 in 10.0 mi West 5.8 mph - N/A   Overcast
7:34 PM 17.6 °F 12.3 °F 12.2 °F 79% 30.09 in 10.0 mi WSW 3.5 mph - N/A   Mostly Cloudy
7:54 PM 17.6 °F 12.3 °F 12.2 °F 79% 30.10 in 10.0 mi WSW 3.5 mph - N/A   Scattered Clouds
8:15 PM 17.6 °F 12.3 °F 12.2 °F 79% 30.11 in 10.0 mi SW 3.5 mph - N/A   Clear
8:34 PM 15.8 °F 8.6 °F 12.2 °F 86% 30.11 in 10.0 mi SW 4.6 mph - N/A   Clear
8:54 PM 15.8 °F 10.2 °F 10.4 °F 79% 30.10 in 10.0 mi SW 3.5 mph - N/A   Scattered Clouds
9:15 PM 15.8 °F 10.2 °F 10.4 °F 79% 30.10 in 10.0 mi SSW 3.5 mph - N/A   Scattered Clouds
9:34 PM 15.8 °F 10.2 °F 10.4 °F 79% 30.11 in 10.0 mi SSW 3.5 mph - N/A   Scattered Clouds
9:54 PM 15.8 °F 10.2 °F 10.4 °F 79% 30.11 in 10.0 mi SSW 3.5 mph - N/A   Scattered Clouds
10:14 PM 15.8 °F 8.6 °F 10.4 °F 79% 30.11 in 10.0 mi SSW 4.6 mph - N/A   Scattered Clouds
10:34 PM 15.8 °F 7.2 °F 10.4 °F 79% 30.11 in 10.0 mi SW 5.8 mph - N/A   Scattered Clouds
10:54 PM 15.8 °F 7.2 °F 10.4 °F 79% 30.11 in 10.0 mi SW 5.8 mph - N/A   Clear
11:14 PM 15.8 °F 8.6 °F 10.4 °F 79% 30.11 in 10.0 mi SW 4.6 mph - N/A   Clear
11:34 PM 17.6 °F 8.2 °F 10.4 °F 73% 30.12 in 10.0 mi SW 6.9 mph - N/A   Mostly Cloudy
11:54 PM 17.6 °F 9.3 °F 10.4 °F 73% 30.12 in 10.0 mi SSW 5.8 mph - N/A   Mostly Cloudy